sat.trackr.live / text

‹ back to catalog

DAMPE

NORAD 41173 · 2015-078A

PAYLOAD ACTIVE UNKNOWN

§ Identity

Operator
Country
PRC
Launch date
2015-12-17
Launch site
JSC
Launch vehicle
Mass (kg)
RCS (m²)
1.58

Purposes: science

External: N2YO · Heavens-Above · Gunter

§ Orbital elements

Epoch: 2026-09-13T05:07:21.640224Z

Period
94.06 min
Inclination
97.4591°
Eccentricity
0.0013317
Mean motion
15.30972974 rev/d
Perigee alt
463.8 km
Apogee alt
482.0 km
Semi-major
6,851.0 km
B*
3.0533e-5
RAAN
262.1430°
Arg perigee
118.6326°
Mean anomaly
241.6256°
Rev number
59,801

§ Raw data

DAMPE1 41173U 15078A   26256.21344491  .00000837  00000+0  30533-4 0  99912 41173  97.4591 262.1430 0013317 118.6326 241.6256 15.30972974598019

JSON: /api/v1/satellites/41173 · /tle

For live sub-satellite position, see the globe view (requires WebGL).

§ Visibility from observer

Set your observer location to see the next 7 days of passes ≥ 10°. The values pass through the URL so the page stays shareable.

No JS? Fill the form by hand. The geolocation button needs JavaScript.

§ Radio — SatNOGS DB

ModeDescriptionDownlinkUplink
FM S-band telemetry 2.227 GHz

1 transmitter · refreshed weekly from db.satnogs.org